Location: Juzet
(42.9779°N, 0.7597°E)
Time: 18:04:53
(UTC+00:00)

Helios 1B rocket - Pass Details

Date: 14 July 2020
Orbit: 574 x 584 km, 98.1° (Epoch: 12 August)

Event Time Altitude Azimuth Distance (km) Brightness Sun altitude
Rises 00:27:37 0° 14° (NNE) 2,806 7.3 -25.1°
Reaches altitude 10° 00:29:47 10° 15° (NNE) 1,900 6.1 -25.1°
Enters shadow 00:33:26 67° 39° (NE) 630 2.6 -25.0°
